GFSNE_sfc_dewp_168.txt.gz
Dewpoint
37 36 38 38 38 38 39 41 40 37 39 41 44 46 49 53 57 61 62 55 53 53 54 56 57 58 58 58 58 58 59 58 58 58 58 58 59 59
34 35 34 34 35 36 37 36 39 39 37 41 42 44 47 49 51 57 60 56 52 52 53 53 55 56 56 56 56 57 57 57 57 57 58 58 58 59
32 32 32 32 33 32 34 34 34 36 37 38 40 41 44 47 51 53 56 61 60 51 51 52 53 54 54 54 54 55 55 55 55 56 57 58 58 59
30 30 30 30 31 31 32 33 34 36 36 35 37 39 39 43 47 51 54 54 59 54 50 51 52 52 52 52 52 52 52 52 52 53 54 56 57 57
28 29 29 31 31 33 35 35 36 36 35 34 34 37 40 42 45 49 52 54 57 55 49 49 50 52 52 52 52 52 51 50 49 50 50 51 52 54
29 30 30 31 32 33 33 33 34 35 35 34 33 35 38 41 43 47 50 52 54 53 52 50 50 50 51 50 50 50 50 50 49 49 48 47 48 50
28 28 30 30 31 32 32 34 34 34 34 33 30 31 34 37 42 46 48 51 52 54 52 53 53 52 52 50 51 50 50 50 49 49 48 47 46 47
27 27 27 28 29 31 32 31 29 28 28 28 28 27 28 33 37 42 46 49 49 49 50 49 44 52 53 53 51 49 48 48 48 48 47 47 46 46
25 25 25 25 28 28 27 25 25 27 26 27 27 27 28 30 34 36 40 45 50 49 52 47 37 49 39 48 47 47 47 47 47 46 46 46 44 44
23 24 25 25 26 25 25 24 24 25 26 26 28 30 30 32 36 38 40 40 46 44 50 44 35 34 35 38 43 46 46 46 46 46 46 45 43 42
21 23 23 24 25 26 25 23 22 23 25 26 27 28 28 29 30 35 35 35 41 39 38 37 33 33 34 34 36 42 43 44 44 44 43 41 39 37
20 21 21 22 24 24 23 22 21 20 22 23 24 26 27 28 29 30 34 34 40 36 38 39 33 33 34 34 34 34 36 39 40 41 40 39 38 37
19 19 20 23 24 24 24 22 22 22 22 23 22 23 25 26 29 32 34 38 41 45 41 39 34 34 33 31 32 33 34 35 35 37 38 38 38 38
17 18 20 19 21 20 20 22 22 21 20 20 20 20 22 24 27 33 35 42 48 49 42 43 36 36 32 31 31 33 33 34 35 35 35 37 37 36
17 18 18 17 17 18 19 21 19 19 18 17 17 18 23 26 27 30 35 41 39 42 42 44 43 40 40 34 30 32 31 32 34 34 34 34 34 34
15 16 15 16 13 14 15 16 17 17 17 17 18 20 25 26 27 33 36 41 39 34 36 41 43 43 39 36 37 33 34 30 33 33 33 33 34 35
14 13 13 12 11 11 12 12 14 15 15 16 17 19 23 25 26 35 40 36 39 35 34 34 36 38 40 37 35 35 33 32 33 33 33 31 33 34
12 11 11 11 10 10 10 11 12 13 14 15 16 18 21 23 25 28 35 39 38 36 33 34 35 35 34 34 36 34 34 32 32 32 33 31 30 33
10 10 10 10 10 10 10 10 10 12 14 13 15 17 21 23 25 25 27 34 35 36 35 35 38 40 36 29 29 35 33 32 31 31 32 32 29 30
10 10 9 10 10 10 10 10 10 10 11 11 13 16 20 22 23 25 25 26 33 33 34 35 38 40 40 30 28 30 34 32 32 31 29 28 28 29
9 9 10 9 10 10 10 9 9 9 9 10 12 14 19 21 21 24 25 25 26 30 30 29 31 32 32 33 30 29 31 33 33 29 26 26 25 26
10 8 10 10 10 10 10 9 8 8 8 8 10 14 18 21 21 22 25 25 25 26 26 28 31 32 31 31 30 27 27 29 31 29 29 28 25 21
9 9 9 9 9 10 9 8 7 6 7 8 10 14 17 19 21 23 24 26 26 25 25 27 28 30 29 27 25 25 24 25 25 25 26 28 27 27

GFSNE_sfc_dewp_171.txt.gz
Dewpoint
35 35 33 33 32 33 34 34 34 32 31 35 37 38 40 41 44 46 48 49 50 51 52 53 54 58 58 58 58 58 58 58 58 58 58 58 57 58
30 30 30 31 31 32 33 32 34 34 32 34 34 35 37 37 40 41 44 46 48 50 50 51 53 54 57 57 57 57 57 57 57 57 57 57 58 58
28 28 29 28 29 30 32 31 32 32 32 32 34 34 34 35 37 41 44 46 48 49 49 50 50 52 55 55 55 55 55 56 56 56 57 57 58 58
26 26 28 28 30 31 32 33 34 36 34 32 33 33 32 33 34 38 42 44 46 48 48 48 49 49 50 51 52 52 53 53 53 54 55 55 56 57
26 28 29 30 30 30 30 31 31 32 33 33 32 34 32 32 33 35 38 42 44 46 47 47 48 49 49 49 52 52 51 50 50 50 51 52 53 54
26 28 28 27 28 29 30 31 31 31 30 29 29 30 31 31 31 31 35 42 41 47 50 50 48 48 49 49 50 51 51 50 49 49 49 48 48 50
26 25 24 26 28 29 28 29 26 24 23 23 23 24 27 28 26 29 30 33 37 42 47 52 52 50 50 48 50 50 50 50 50 50 49 49 48 48
23 22 23 26 26 25 25 25 25 24 23 24 23 24 24 26 28 28 28 29 30 39 47 49 49 51 52 52 50 49 48 48 48 48 48 48 48 46
21 20 21 21 23 23 25 24 23 23 23 24 24 25 26 28 30 29 29 28 30 35 41 41 42 48 50 51 47 46 47 48 48 48 47 46 46 45
20 19 21 20 22 23 24 21 20 20 21 21 23 23 24 25 25 25 26 27 28 32 35 35 40 38 34 37 41 46 46 46 47 47 47 46 45 45
18 18 19 20 23 24 22 20 18 18 20 22 22 23 25 25 25 27 25 24 23 26 34 36 39 33 33 33 34 41 45 45 45 46 46 46 46 45
17 17 18 20 20 20 21 19 17 18 18 18 19 20 21 22 23 26 27 24 24 25 31 36 34 33 34 33 33 34 37 42 45 44 45 46 44 49
16 15 18 20 19 18 19 19 19 18 17 17 17 17 18 19 21 24 26 28 26 25 31 39 35 34 33 31 32 33 34 36 41 44 44 44 44 44
14 15 16 17 17 16 15 17 17 16 15 14 14 14 15 17 18 21 24 27 28 30 31 35 37 37 34 31 32 32 33 33 37 38 41 41 42 42
14 14 15 15 14 14 14 14 13 14 13 12 12 13 14 17 19 23 26 28 29 28 31 33 37 41 40 36 31 32 32 32 34 35 36 38 38 37
11 11 10 14 9 9 10 11 12 12 12 12 12 13 14 15 17 22 24 26 27 29 31 34 38 43 42 40 34 32 32 31 33 35 35 35 36 37
10 10 8 8 7 8 8 8 9 10 10 11 11 12 12 14 16 21 24 26 26 32 34 38 39 44 44 41 37 35 33 32 34 33 34 32 34 34
8 7 7 7 6 7 7 7 8 8 10 10 10 10 11 13 16 20 23 25 25 33 38 35 37 35 33 34 38 36 36 34 33 33 34 33 31 34
8 7 6 7 6 6 7 7 6 7 9 9 9 9 11 13 16 19 21 24 25 29 38 37 38 39 35 35 31 36 36 33 32 33 34 34 31 31
7 7 6 7 5 6 6 7 6 7 7 7 8 8 10 12 15 17 20 22 24 25 32 35 39 40 39 36 30 31 34 33 33 32 32 31 31 31
5 6 7 8 6 5 5 6 4 5 5 6 7 7 9 12 15 16 19 22 25 25 25 28 31 33 34 34 31 30 30 34 35 33 30 28 28 28
4 5 6 7 6 4 4 4 1 2 3 4 5 7 8 13 14 16 18 21 23 25 25 28 31 32 32 34 31 28 28 30 32 32 31 30 29 25
3 5 5 6 6 3 3 2 -1 1 1 3 4 6 8 12 14 16 18 21 23 24 24 25 27 29 31 31 30 29 26 27 27 26 26 29 30 29

GFSNE_sfc_dewp_177.txt.gz
Dewpoint
28 27 27 28 29 27 28 29 29 25 26 28 30 32 32 33 32 32 33 37 38 37 39 40 40 41 46 47 49 53 58 59 59 60 60 59 59 58
25 26 26 28 29 31 31 31 30 29 25 26 28 30 31 30 32 30 31 34 36 36 37 36 39 40 42 44 46 49 53 57 58 58 59 59 59 58
24 24 26 28 24 24 26 28 29 31 26 25 25 25 24 25 25 27 28 29 30 33 35 35 36 39 39 41 43 46 49 54 55 57 57 58 57 57
23 24 26 21 22 24 28 24 25 26 23 20 20 22 21 23 23 24 24 24 27 30 34 35 35 37 38 38 40 44 46 49 51 53 55 56 56 57
23 22 21 21 21 26 22 23 24 20 21 22 20 22 22 23 23 23 24 25 25 29 30 32 33 35 36 38 40 41 44 46 47 50 51 53 53 54
21 21 20 20 24 21 21 23 22 22 21 20 20 20 20 20 22 22 22 23 24 25 26 28 33 35 36 37 39 44 45 45 46 47 48 49 50 51
20 17 18 20 21 19 20 24 23 21 20 19 17 16 17 18 18 19 20 21 21 23 26 28 29 27 29 35 36 39 42 44 45 46 47 48 49 50
16 15 15 18 19 20 22 21 19 20 19 17 17 16 17 17 18 19 18 19 18 24 24 23 26 25 26 28 30 32 35 39 44 45 46 47 48 48
16 14 13 13 18 20 21 18 17 17 19 18 19 17 17 17 19 19 18 19 19 21 22 21 24 24 26 27 30 33 34 37 41 44 45 45 46 46
13 12 14 15 16 18 18 14 11 12 14 15 16 17 18 19 19 20 20 19 19 20 22 19 23 23 25 27 30 32 34 38 41 42 43 44 44 45
12 12 14 14 17 18 15 12 11 13 14 16 17 18 18 19 18 18 15 15 14 16 19 18 21 25 28 28 31 33 35 36 38 41 43 43 44 44
13 11 15 15 16 16 14 12 13 13 10 11 12 13 14 14 16 15 16 13 13 12 22 17 17 19 20 27 32 32 37 39 39 40 42 42 43 47
12 10 12 15 14 14 14 12 12 11 10 10 10 10 11 12 12 13 14 14 13 13 16 17 18 18 20 21 23 26 30 33 38 41 41 42 43 45
3 6 6 13 13 11 10 12 11 9 8 7 7 7 8 9 10 12 13 14 16 16 17 18 18 19 19 19 19 24 27 33 35 38 42 42 41 43
3 10 11 11 11 9 9 9 7 6 5 4 4 5 7 9 11 11 12 13 14 15 15 18 20 22 23 21 20 21 23 31 35 36 40 43 42 42
4 4 0 11 1 -1 3 4 3 3 3 1 1 4 6 6 7 9 9 11 11 11 16 18 19 21 23 23 24 22 23 25 34 35 38 41 44 44
1 -8 -7 0 1 2 2 0 0 0 0 -1 -0 1 2 3 4 7 8 9 9 9 12 14 17 20 24 25 24 25 24 25 29 35 35 37 37 42
-8 -13 -2 -1 -1 0 1 -0 -1 -2 -1 -2 -3 -1 -1 0 2 3 6 6 7 9 10 13 16 18 23 25 29 26 26 27 30 36 36 36 37 35
-6 -7 -6 -2 -1 -1 1 -0 -3 -3 -1 -4 -4 -3 -2 -1 -0 1 3 4 6 7 9 12 17 18 20 19 28 32 27 30 31 34 35 36 35 36
1 -2 -3 -1 -1 -1 0 -1 -4 -4 -4 -5 -5 -5 -4 -3 -2 -1 1 3 6 7 8 11 15 18 20 20 22 31 31 29 34 35 34 31 31 32
-1 -2 -3 -0 -1 -1 -1 -2 -6 -5 -5 -7 -6 -6 -5 -4 -4 -2 -0 3 5 7 7 9 14 19 24 27 25 29 33 31 35 36 34 33 29 29
-2 -2 -2 -0 -2 -1 -3 -4 -7 -7 -8 -7 -7 -7 -6 -5 -4 -3 -0 2 3 6 8 12 16 20 22 24 25 32 30 33 33 34 33 32 31 28
-4 -3 -3 -2 -2 -1 -3 -6 -8 -8 -8 -8 -7 -7 -7 -7 -4 -2 -1 1 4 5 8 10 14 21 20 23 26 31 29 31 31 30 29 31 31 31

GFSNE_sfc_dewp_180.txt.gz
Dewpoint
26 26 27 28 30 29 30 29 27 22 21 24 26 30 26 25 26 27 28 30 32 31 32 34 35 37 37 38 41 44 46 48 50 53 59 60 61 61
25 25 26 26 23 25 27 27 28 27 22 23 23 22 23 22 25 26 25 29 28 29 30 31 33 34 36 37 38 39 42 45 47 50 57 57 60 60
23 23 22 22 22 24 25 24 23 25 20 19 20 21 21 22 22 23 25 25 25 28 29 30 32 33 33 34 35 36 38 40 43 47 52 57 58 60
20 20 20 19 21 23 21 21 22 21 19 18 19 19 20 21 22 22 20 21 24 26 27 28 29 30 33 34 35 37 38 41 41 44 48 54 56 58
20 18 18 19 22 20 20 20 21 19 20 17 18 19 19 19 19 20 21 21 19 25 25 25 27 29 32 33 34 34 36 39 41 42 44 47 51 54
19 17 16 18 19 19 17 21 19 19 17 17 16 16 16 17 19 18 17 19 19 19 22 24 27 28 28 28 29 30 32 36 38 40 43 43 45 49
16 14 14 19 19 19 19 21 19 18 17 15 14 14 15 15 14 16 16 17 19 20 23 24 23 24 25 27 27 29 30 31 33 35 36 42 43 46
12 12 13 16 17 19 20 19 17 15 15 14 15 14 14 14 15 17 18 17 14 21 20 19 22 23 24 25 26 28 29 31 32 34 36 39 43 44
11 10 11 11 16 17 17 16 14 15 17 15 15 13 13 15 18 17 16 16 15 18 18 17 21 21 23 22 26 28 30 32 33 34 35 37 40 42
10 10 12 12 15 16 14 11 9 10 11 11 12 14 16 17 17 16 17 16 16 17 17 14 19 19 23 24 23 25 27 32 35 34 35 37 40 41
9 9 12 12 16 16 12 10 9 10 12 14 15 16 16 16 16 14 12 12 10 12 15 15 19 17 19 20 24 27 28 27 29 35 37 37 38 40
11 10 13 14 15 14 11 8 10 9 6 7 8 9 11 10 14 10 12 10 10 9 17 14 14 16 15 22 25 23 24 25 26 29 33 38 39 41
11 10 11 14 14 13 12 9 10 7 7 6 5 7 7 7 9 10 10 12 11 10 13 15 14 14 15 15 19 21 23 25 28 27 30 36 40 41
2 5 4 12 12 11 10 10 9 4 5 5 3 2 3 5 7 9 10 11 12 11 13 14 14 14 14 14 14 20 22 25 26 26 28 33 37 40
3 8 10 10 9 7 8 8 5 3 2 2 0 0 2 4 7 7 8 10 11 11 11 14 14 16 18 17 16 18 19 23 26 26 27 29 36 41
-2 -3 -4 9 -4 -3 -1 2 2 1 -1 0 -0 0 1 1 2 4 5 5 7 7 10 13 14 15 16 17 17 18 21 21 25 25 26 28 35 40
-4 -8 -4 -2 -2 -1 -1 -0 1 -1 -3 -2 -2 -3 -2 -1 -1 2 2 4 4 5 6 9 12 14 15 16 17 18 19 21 25 26 26 26 29 37
-8 -13 -8 -6 -7 -3 -3 -2 -1 -3 -4 -3 -3 -4 -5 -4 -3 -2 0 1 2 3 5 8 9 11 13 15 18 19 24 25 27 27 26 26 28 35
-6 -10 -12 -10 -4 -2 -3 -2 -4 -3 -5 -4 -5 -6 -5 -5 -5 -4 -3 -1 -1 1 3 6 8 10 9 8 13 16 18 20 27 28 28 27 29 35
-0 -4 -6 -5 -3 -3 -3 -3 -4 -5 -7 -6 -7 -7 -7 -6 -7 -7 -5 -4 -2 -1 1 4 6 9 9 8 10 14 19 21 24 29 29 31 33 33
-2 -2 -4 -4 -2 -2 -3 -4 -6 -7 -9 -8 -8 -8 -8 -7 -8 -8 -6 -6 -4 -1 -1 1 5 10 13 16 14 18 21 25 27 29 30 32 32 31
-3 -3 -3 -3 -3 -3 -2 -5 -7 -9 -10 -9 -9 -8 -8 -8 -9 -8 -7 -5 -4 -2 -0 3 7 8 11 13 14 18 20 26 31 29 31 34 32 29
-6 -5 -4 -4 -4 -3 -2 -6 -9 -10 -10 -10 -9 -9 -9 -10 -9 -8 -6 -5 -4 -3 -1 1 3 7 9 13 18 19 21 28 31 29 31 31 32 32

GFSNE_sfc_dewp_183.txt.gz
Dewpoint
27 28 28 28 25 25 26 26 25 21 19 20 21 23 21 22 24 25 26 27 29 29 30 31 32 34 35 36 37 38 39 41 43 45 48 51 53 61
24 26 23 22 24 25 26 23 22 21 19 19 18 20 21 18 22 24 23 27 26 26 28 29 30 32 32 33 34 36 37 38 40 42 44 46 49 54
21 20 20 22 23 22 21 21 20 20 18 17 17 19 20 21 21 22 22 22 22 25 26 27 28 28 29 30 32 34 34 36 38 41 43 45 46 50
18 18 18 18 20 19 19 18 19 18 17 15 16 17 18 20 20 20 18 17 19 22 25 25 26 27 28 30 31 32 31 34 36 37 38 43 45 47
16 16 18 18 17 18 17 17 18 15 16 15 14 16 16 17 17 18 17 19 16 22 22 23 25 27 28 28 28 28 30 30 33 34 35 38 39 44
16 15 17 17 18 17 15 17 15 15 14 13 12 12 13 14 15 14 14 17 17 16 20 22 25 25 25 26 27 28 28 29 30 32 33 34 35 37
13 12 16 17 18 18 16 19 16 15 13 12 10 11 10 11 12 14 14 16 18 20 20 21 21 21 22 25 25 26 27 28 29 31 33 34 34 36
7 10 11 13 16 17 17 17 16 14 14 12 11 9 9 11 13 14 16 17 17 20 20 22 20 21 21 21 23 25 26 27 28 30 33 34 34 35
6 7 7 8 15 14 14 13 11 13 14 13 12 10 11 11 13 14 14 14 16 17 18 21 22 23 23 18 24 24 24 25 27 27 32 35 34 34
7 8 10 11 14 14 12 8 6 7 8 7 8 10 11 12 13 12 13 14 17 17 17 16 21 23 26 25 23 24 25 28 29 27 27 30 32 35
7 9 10 12 15 16 12 8 7 7 6 10 12 12 12 12 11 10 11 11 14 15 19 19 21 21 23 25 26 23 24 23 24 25 25 27 32 34
9 8 11 14 14 14 12 9 10 7 3 5 5 6 7 6 9 7 9 9 10 12 17 16 18 18 15 21 24 25 27 23 23 25 26 26 27 32
12 13 14 13 12 12 11 10 10 7 6 4 5 7 6 6 7 7 6 8 9 11 15 15 16 16 16 18 19 23 25 28 29 28 26 27 28 30
12 14 14 11 10 8 10 9 8 6 5 4 5 6 5 6 7 8 7 8 9 8 11 12 16 16 16 17 17 21 25 27 28 28 30 29 29 31
12 9 7 7 7 8 6 7 5 6 5 4 3 4 4 5 5 7 8 8 9 10 8 12 14 14 16 16 17 20 20 24 27 28 30 31 31 33
8 9 4 7 4 5 7 7 8 7 4 4 3 4 4 3 2 3 3 4 7 10 10 11 11 12 15 16 16 17 20 19 23 26 28 30 32 32
7 9 8 8 7 7 7 6 7 6 5 4 3 3 2 1 1 2 2 2 3 5 9 11 10 11 14 14 16 18 20 22 25 26 26 28 30 31
9 7 6 6 5 6 5 5 6 3 4 2 2 2 1 1 1 1 2 2 2 5 7 10 11 12 12 14 15 16 19 19 23 23 23 25 27 31
7 7 6 5 5 5 5 4 4 3 1 1 1 0 0 -0 1 0 1 1 1 2 3 7 8 9 9 8 13 12 15 17 19 20 23 25 25 30
5 5 4 4 3 4 4 3 3 2 1 -0 -1 -1 -1 -1 -1 -1 -1 -0 0 1 4 5 6 7 7 6 7 12 15 18 21 23 26 28 28 30
3 3 4 3 2 2 3 3 2 1 -1 -1 -1 -2 -2 -2 -2 -2 -2 -3 -2 1 2 3 7 7 10 12 12 14 18 17 19 24 26 26 26 32
4 1 1 1 2 2 3 3 2 -0 -1 -2 -2 -2 -2 -2 -3 -3 -2 -2 -1 1 3 4 7 9 9 10 9 12 16 20 24 25 28 28 29 29
5 3 2 2 1 1 0 1 -1 -1 -3 -3 -3 -3 -4 -4 -4 -3 -3 -2 0 0 1 3 4 7 7 8 10 12 16 20 25 28 33 30 28 29